Location: Zagreb
(45.8000°N, 16.0000°E)
Time: 12:46:33
(UTC+01:00)

Vanguard 1 Rocket - Pass Details

Date: 04 October 2020
Orbit: 656 x 4221 km, 34.3° (Epoch: 28 October)

Event Time Altitude Azimuth Distance (km) Brightness Sun altitude
Rises 18:21:22 0° 245° (WSW) 4,587 12.8 0.6°
Reaches altitude 10° 18:23:55 10° 240° (WSW) 3,935 12.0 0.2°
Maximum altitude 18:34:35 52° 167° (SSE) 2,999 10.0 -1.6°
Drops below altitude 10° 18:54:24 10° 100° (E) 6,940 11.2 -5.1°
Enters shadow 18:57:29 - 98° (E) 7,594 11.4 -5.6°
Sets 19:00:46 0° 97° (E) 8,269 - -6.2°
